When you browse on this site, cookies collect data to enhance your experience and personalize the content and advertising you see.
Visit our Privacy Policy to learn more. By continuing to use the site, you agree to this use of cookies and data.
  • In Lithuania
  • List of Countries
  • For 7 days
  • Water Temperature
  • Satellite Maps
  • Weather Map
  • Weather Widgets
  • user-avatar
    Login

    Hourly Weather Guarda

    Today, 19 January, Saturday

    Time Temperature Precipitation Wind Pressure Humidity
    00:00 0°C° 0 mm 0 mps 687 mmHg 92%
    01:00 0°C° 0 mm 0 mps 687 mmHg 92%
    02:00 0°C° 0 mm 0 mps 687 mmHg 92%
    03:00 +1°C° 0 mm 1 mps 686 mmHg 92%
    04:00 +2°C° 0.1 mm 1 mps 686 mmHg 92%
    05:00 +2°C° 0.1 mm 1 mps 686 mmHg 92%
    06:00 +2°C° 0 mm 2 mps 686 mmHg 89%
    07:00 +2°C° 0.5 mm 2 mps 686 mmHg 90%
    08:00 +2°C° 0.5 mm 2 mps 686 mmHg 91%
    09:00 +2°C° 0.5 mm 3 mps 685 mmHg 92%
    10:00 +2°C° 0.5 mm 3 mps 685 mmHg 92%
    11:00 +3°C° 0.5 mm 4 mps 685 mmHg 93%
    12:00 +2°C° 0 mm 5 mps 685 mmHg 95%
    13:00 +2°C° 1.2 mm 5 mps 684 mmHg 95%
    14:00 +3°C° 1.2 mm 4 mps 683 mmHg 95%
    15:00 +4°C° 1.2 mm 4 mps 682 mmHg 94%
    16:00 +4°C° 0.3 mm 4 mps 682 mmHg 95%
    17:00 +5°C° 0.3 mm 3 mps 682 mmHg 96%
    18:00 +5°C° 0.3 mm 3 mps 682 mmHg 97%
    19:00 +5°C° 0.2 mm 3 mps 681 mmHg 97%
    20:00 +5°C° 0.2 mm 3 mps 681 mmHg 97%
    21:00 +5°C° 0.2 mm 3 mps 681 mmHg 98%
    22:00 +5°C° 0.2 mm 3 mps 681 mmHg 98%
    23:00 +5°C° 0.2 mm 3 mps 682 mmHg 98%

    Tomorrow, 20 January, Sunday

    Time Temperature Precipitation Wind Pressure Humidity
    00:00 +5°C° 0.2 mm 3 mps 682 mmHg 98%
    01:00 +5°C° 0.1 mm 3 mps 682 mmHg 95%
    02:00 +5°C° 0.1 mm 4 mps 683 mmHg 93%
    03:00 +3°C° 0.1 mm 5 mps 683 mmHg 91%
    04:00 +3°C° 0 mm 4 mps 683 mmHg 92%
    05:00 +3°C° 0 mm 4 mps 684 mmHg 92%
    06:00 +1°C° 0 mm 4 mps 684 mmHg 93%
    07:00 +1°C° 0 mm 4 mps 685 mmHg 91%
    08:00 +1°C° 0 mm 4 mps 686 mmHg 90%
    09:00 +1°C° 0 mm 4 mps 686 mmHg 88%
    10:00 +3°C° 0 mm 4 mps 687 mmHg 81%
    11:00 +5°C° 0 mm 5 mps 688 mmHg 75%
    12:00 +5°C° 0 mm 6 mps 688 mmHg 68%
    13:00 +5°C° 0 mm 6 mps 688 mmHg 66%
    14:00 +7°C° 0 mm 5 mps 688 mmHg 65%
    15:00 +7°C° 0 mm 5 mps 688 mmHg 64%
    16:00 +6°C° 0 mm 4 mps 688 mmHg 71%
    17:00 +4°C° 0 mm 3 mps 688 mmHg 79%
    18:00 +3°C° 0 mm 3 mps 688 mmHg 87%
    19:00 +3°C° 0 mm 2 mps 688 mmHg 89%
    20:00 +3°C° 0 mm 2 mps 689 mmHg 91%
    21:00 +3°C° 0 mm 2 mps 689 mmHg 93%
    22:00 +2°C° 0 mm 2 mps 689 mmHg 94%
    23:00 +2°C° 0 mm 2 mps 689 mmHg 94%

    Day after tomorrow, 21 January, Monday

    Time Temperature Precipitation Wind Pressure Humidity
    00:00 +2°C° 0 mm 2 mps 690 mmHg 95%
    01:00 +1°C° 0 mm 2 mps 690 mmHg 95%
    02:00 +2°C° 0 mm 1 mps 690 mmHg 95%
    03:00 +2°C° 0 mm 1 mps 690 mmHg 95%
    04:00 +1°C° 0 mm 1 mps 690 mmHg 94%
    05:00 +1°C° 0 mm 1 mps 690 mmHg 94%
    06:00 +1°C° 0 mm 1 mps 690 mmHg 94%
    07:00 +1°C° 0 mm 2 mps 690 mmHg 92%
    08:00 +1°C° 0 mm 2 mps 690 mmHg 90%
    09:00 +2°C° 0 mm 2 mps 691 mmHg 87%
    10:00 +3°C° 0 mm 2 mps 691 mmHg 78%
    11:00 +5°C° 0 mm 2 mps 692 mmHg 69%
    12:00 +7°C° 0 mm 3 mps 692 mmHg 60%
    13:00 +7°C° 0 mm 3 mps 692 mmHg 58%
    14:00 +8°C° 0 mm 2 mps 691 mmHg 56%
    15:00 +8°C° 0 mm 2 mps 691 mmHg 54%
    16:00 +6°C° 0 mm 2 mps 691 mmHg 62%
    17:00 +5°C° 0 mm 1 mps 690 mmHg 70%
    18:00 +3°C° 0 mm 1 mps 690 mmHg 78%
    19:00 +3°C° 0 mm 1 mps 690 mmHg 80%
    20:00 +2°C° 0 mm 1 mps 690 mmHg 83%
    21:00 +2°C° 0 mm 1 mps 691 mmHg 85%
    22:00 +2°C° 0 mm 1 mps 690 mmHg 88%
    23:00 +1°C° 0 mm 1 mps 690 mmHg 90%

    22 January, Tuesday

    Time Temperature Precipitation Wind Pressure Humidity
    00:00 +1°C° 0 mm 1 mps 690 mmHg 92%
    01:00 -1°C° 0 mm 2 mps 690 mmHg 93%
    02:00 -1°C° 0 mm 2 mps 690 mmHg 95%
    03:00 -1°C° 0 mm 2 mps 689 mmHg 96%
    04:00 +1°C° 0 mm 2 mps 689 mmHg 96%
    05:00 0°C° 0 mm 3 mps 689 mmHg 95%
    06:00 +1°C° 0 mm 3 mps 688 mmHg 95%
    07:00 +2°C° 0 mm 3 mps 689 mmHg 94%
    08:00 +2°C° 0 mm 3 mps 689 mmHg 93%
    09:00 +3°C° 0 mm 3 mps 689 mmHg 92%
    10:00 +3°C° 0.1 mm 3 mps 689 mmHg 89%
    11:00 +3°C° 0.1 mm 4 mps 689 mmHg 85%
    12:00 +4°C° 0.1 mm 4 mps 689 mmHg 81%
    13:00 +3°C° 0 mm 5 mps 689 mmHg 78%
    14:00 +3°C° 0 mm 5 mps 688 mmHg 76%
    15:00 +3°C° 0 mm 5 mps 688 mmHg 73%
    16:00 +2°C° 0 mm 5 mps 688 mmHg 76%
    17:00 +1°C° 0 mm 5 mps 688 mmHg 80%
    18:00 +1°C° 0 mm 4 mps 688 mmHg 83%
    19:00 +1°C° 0 mm 4 mps 688 mmHg 84%
    20:00 0°C° 0 mm 5 mps 688 mmHg 85%
    21:00 0°C° 0 mm 5 mps 688 mmHg 86%
    22:00 0°C° 0 mm 5 mps 688 mmHg 86%
    23:00 0°C° 0 mm 5 mps 688 mmHg 87%

    23 January, Wednesday

    Time Temperature Precipitation Wind Pressure Humidity
    00:00 0°C° 0 mm 4 mps 688 mmHg 87%
    01:00 0°C° 0 mm 4 mps 688 mmHg 88%
    02:00 -1°C° 0 mm 4 mps 688 mmHg 90%
    03:00 -1°C° 0 mm 4 mps 688 mmHg 92%
    04:00 -1°C° 0 mm 5 mps 687 mmHg 90%
    05:00 0°C° 0 mm 5 mps 687 mmHg 89%
    06:00 0°C° 0 mm 5 mps 687 mmHg 88%
    07:00 +1°C° 0.1 mm 6 mps 687 mmHg 88%
    08:00 +2°C° 0.1 mm 7 mps 687 mmHg 88%
    09:00 +3°C° 0.1 mm 7 mps 687 mmHg 87%
    10:00 +4°C° 0.1 mm 8 mps 686 mmHg 86%
    11:00 +4°C° 0.1 mm 8 mps 686 mmHg 84%
    12:00 +5°C° 0.1 mm 8 mps 686 mmHg 83%
    13:00 +4°C° 0.1 mm 8 mps 686 mmHg 82%
    14:00 +4°C° 0.1 mm 7 mps 685 mmHg 82%
    15:00 +4°C° 0.1 mm 7 mps 685 mmHg 82%
    16:00 +4°C° 0 mm 6 mps 685 mmHg 85%
    17:00 +3°C° 0 mm 6 mps 685 mmHg 87%
    18:00 +3°C° 0 mm 5 mps 685 mmHg 90%
    19:00 +3°C° 0 mm 5 mps 685 mmHg 91%
    20:00 +2°C° 0 mm 5 mps 685 mmHg 91%
    21:00 +2°C° 0 mm 5 mps 686 mmHg 92%
    22:00 +2°C° 0 mm 5 mps 686 mmHg 92%
    23:00 +2°C° 0 mm 5 mps 686 mmHg 92%

    24 January, Thursday

    Time Temperature Precipitation Wind Pressure Humidity
    00:00 +3°C° 0 mm 4 mps 686 mmHg 93%
    01:00 +3°C° 0 mm 4 mps 685 mmHg 93%
    02:00 +3°C° 0 mm 4 mps 685 mmHg 93%
    03:00 +3°C° 0 mm 4 mps 685 mmHg 94%
    04:00 +3°C° 0 mm 4 mps 685 mmHg 94%
    05:00 +2°C° 0 mm 5 mps 685 mmHg 94%
    06:00 +2°C° 0 mm 5 mps 684 mmHg 94%
    07:00 +3°C° 0 mm 5 mps 685 mmHg 93%
    08:00 +3°C° 0 mm 5 mps 685 mmHg 91%
    09:00 +3°C° 0 mm 5 mps 685 mmHg 90%
    10:00 +6°C° 0 mm 5 mps 685 mmHg 83%
    11:00 +7°C° 0 mm 6 mps 685 mmHg 76%
    12:00 +8°C° 0 mm 6 mps 685 mmHg 69%
    13:00 +8°C° 0 mm 6 mps 685 mmHg 68%
    14:00 +9°C° 0 mm 6 mps 685 mmHg 67%
    15:00 +9°C° 0 mm 6 mps 684 mmHg 66%
    16:00 +8°C° 0 mm 5 mps 684 mmHg 74%
    17:00 +6°C° 0 mm 4 mps 684 mmHg 82%
    18:00 +5°C° 0 mm 3 mps 684 mmHg 90%
    19:00 +5°C° 0 mm 4 mps 684 mmHg 91%
    20:00 +4°C° 0 mm 4 mps 684 mmHg 92%
    21:00 +4°C° 0 mm 4 mps 684 mmHg 93%
    22:00 +4°C° 0 mm 4 mps 684 mmHg 93%
    23:00 +4°C° 0 mm 4 mps 684 mmHg 93%
    Show more